Theta_e
316 316 314 315 319 320 319 320 315 316 314 308 309 311 313 316 317 316 317 318 319 323 326 323 320 324 333 338 337 337 340 342 346 341 340 350 351 350 352 348 348 347 345 342 342 341 339 336 333 334 336 338 341 343 344 343 343 342 341 339 337 338 341 341 340 340 339 340 339 340 339 336 337 339 338 338 339 339 339 338 338 338 338 338 339 339 338 338 338 337 337 336 336 336 334 332 329
319 316 314 317 320 320 319 317 314 312 310 306 309 313 314 317 316 315 317 317 318 319 319 319 319 324 332 341 341 341 346 346 348 348 348 350 350 351 350 348 348 345 345 343 341 342 341 336 331 333 334 337 339 342 344 343 343 341 340 340 338 339 340 340 339 339 339 338 338 339 338 338 338 338 338 339 339 339 338 338 338 339 339 339 339 338 338 337 336 336 336 336 336 337 337 336 334
319 316 317 319 320 320 318 315 311 308 307 306 308 315 315 316 316 316 317 316 318 317 318 319 323 332 335 344 345 344 349 347 345 346 348 350 351 350 349 348 347 345 344 343 341 342 342 335 329 332 333 336 338 341 343 343 343 341 341 340 340 340 339 338 338 339 339 338 339 340 339 339 339 340 340 340 339 337 337 339 339 339 340 339 338 338 338 337 336 335 335 336 336 337 338 337 336
317 318 319 319 317 318 317 313 312 309 306 306 307 314 316 315 316 316 317 317 318 318 319 319 329 341 342 347 347 345 350 347 346 347 348 350 350 349 349 348 346 345 344 343 341 342 340 331 327 329 331 334 338 341 342 342 342 341 341 340 340 340 339 339 339 339 338 338 339 338 338 339 340 340 339 339 339 337 337 339 339 339 340 339 339 340 340 339 338 338 338 337 337 337 337 336 336
317 319 319 321 319 317 318 315 314 310 308 309 308 313 316 315 316 316 317 318 318 318 319 322 334 345 345 348 347 347 350 347 347 347 349 349 350 349 348 347 346 345 343 343 342 342 337 327 326 326 327 331 335 339 340 341 342 341 341 341 341 340 339 340 339 337 336 337 336 333 334 338 340 339 338 339 340 339 337 339 340 340 342 341 340 341 341 340 340 340 340 339 338 337 337 336 336
318 318 318 321 320 318 317 312 311 309 312 314 311 314 316 316 317 317 318 319 319 319 322 328 338 346 348 348 347 348 349 349 348 347 349 349 350 348 347 347 346 345 343 343 342 343 337 328 327 325 324 328 332 337 339 340 340 340 340 340 339 338 338 338 337 337 338 340 338 335 334 337 337 338 339 340 341 341 338 339 340 340 341 341 340 340 340 339 339 340 340 339 338 338 336 335 335
318 318 317 317 317 317 315 311 310 310 315 316 314 315 315 316 317 318 320 321 319 320 327 335 340 346 349 348 347 349 348 349 348 347 349 349 349 348 347 346 345 345 343 342 342 343 338 331 329 327 325 326 330 334 336 338 338 338 338 338 337 336 335 337 338 339 341 342 341 340 339 337 335 336 339 340 340 341 339 339 339 340 341 341 340 340 340 339 339 339 339 339 338 336 334 334 333
319 319 316 316 316 315 314 312 311 313 315 315 315 315 316 316 317 319 322 324 322 322 327 331 337 346 348 347 350 350 349 349 348 348 349 349 349 348 347 347 345 344 342 342 341 342 339 333 331 330 328 327 328 331 332 334 335 335 336 336 336 336 337 338 340 341 342 342 342 341 340 338 335 334 336 338 339 340 339 339 340 340 341 341 341 340 340 340 339 339 339 338 336 333 333 333 332
318 318 315 316 317 313 312 311 312 315 315 315 315 315 316 316 317 320 324 327 323 322 322 321 331 345 348 349 351 349 350 349 348 348 349 349 349 348 347 346 345 344 343 342 341 341 340 336 333 332 331 331 331 330 329 330 332 334 336 335 336 337 338 338 339 340 340 341 341 340 340 338 335 336 336 336 337 339 339 339 340 340 340 341 340 340 340 339 339 339 337 335 333 333 333 333 332
316 316 315 315 315 310 308 310 312 314 314 314 314 316 316 316 318 322 328 330 325 322 320 323 335 345 348 350 350 349 350 349 348 349 349 349 349 347 347 346 345 343 342 342 341 341 341 338 335 332 332 332 332 332 330 328 329 332 333 334 336 338 338 338 339 339 338 338 338 338 338 337 336 338 337 336 336 337 338 338 339 339 339 339 339 338 339 339 338 337 334 332 332 333 333 333 332
315 314 315 314 311 307 307 309 312 314 314 314 315 316 315 316 319 324 332 332 324 321 321 330 342 346 348 350 349 347 349 349 348 349 348 348 348 347 347 346 344 343 343 342 341 341 341 340 336 331 329 330 330 331 330 329 330 331 332 334 335 336 338 339 339 339 338 337 337 337 338 338 338 338 338 338 335 332 334 337 337 338 337 338 338 338 338 338 337 335 333 332 333 333 333 333 332
316 314 314 312 310 309 310 310 311 314 314 315 316 315 315 316 320 324 334 335 324 320 325 336 344 346 349 351 348 347 349 350 349 348 348 348 347 347 346 345 344 343 343 342 341 342 341 340 338 332 327 328 329 330 331 331 332 333 334 336 336 336 337 337 337 338 338 338 338 339 339 337 336 337 338 338 335 331 332 334 334 336 336 337 337 337 337 336 335 334 332 332 333 334 333 332 331
315 315 313 311 312 312 311 311 311 313 313 316 316 315 316 315 318 325 336 339 327 323 331 341 344 346 349 350 347 346 349 350 349 348 348 348 347 346 345 345 344 344 343 342 342 341 341 340 340 336 329 329 330 331 331 331 332 333 335 336 337 337 336 335 336 337 338 338 338 338 336 334 335 337 338 337 335 334 334 333 332 333 334 337 337 337 337 335 335 333 332 333 334 334 333 332 331
314 315 314 313 314 313 312 311 312 311 312 316 315 314 316 315 317 325 337 339 333 335 340 344 343 347 351 350 348 346 348 349 349 348 348 348 347 346 344 344 344 344 343 342 342 341 342 340 341 339 334 332 333 333 332 331 331 331 333 335 336 337 335 335 336 336 337 336 336 336 334 334 335 336 337 336 336 335 334 333 333 331 330 335 336 336 336 334 333 331 331 333 334 334 333 332 331
314 314 314 313 313 312 312 312 312 311 313 316 315 315 316 316 317 324 337 341 341 343 343 345 344 346 349 350 350 347 347 349 349 348 348 347 346 345 344 344 344 344 343 343 343 342 341 341 341 340 338 337 336 335 333 330 329 329 331 333 334 334 334 334 335 335 335 335 334 335 335 335 335 336 336 335 335 334 332 332 334 332 331 333 335 334 334 333 331 330 331 333 334 334 333 332 332
314 314 313 313 311 310 312 313 312 311 313 316 315 315 316 316 318 326 338 342 344 343 343 345 344 345 345 347 349 347 347 348 349 348 348 347 346 345 344 344 343 343 343 343 343 342 342 341 341 341 341 340 339 339 334 329 328 327 328 329 331 331 331 332 333 334 334 333 333 334 334 336 336 336 336 334 334 332 333 334 333 332 333 333 333 333 332 331 330 330 331 332 333 333 333 332 332
314 314 314 312 310 310 312 313 313 311 314 316 315 315 315 316 317 324 336 342 343 344 345 345 344 344 344 346 348 347 347 348 348 348 348 347 346 345 344 344 343 343 343 343 343 343 342 341 341 341 342 340 341 341 337 332 327 326 327 327 328 328 329 330 332 332 332 332 332 332 333 337 339 337 338 336 334 333 334 335 333 331 332 332 332 332 331 329 329 329 330 332 333 333 333 333 332
313 314 313 310 311 312 313 314 314 313 315 315 315 316 315 317 316 318 331 341 342 344 345 345 344 344 344 346 348 347 347 347 348 347 347 347 346 345 344 344 344 343 343 343 343 343 342 342 341 342 342 341 342 341 340 336 329 329 332 331 330 330 331 333 335 335 334 333 331 333 336 340 340 338 339 338 336 335 334 333 331 331 331 332 332 332 330 328 328 329 329 331 333 333 333 334 333
313 315 313 312 314 314 313 314 314 314 315 314 315 316 315 316 315 316 327 337 340 343 345 346 345 343 344 347 347 347 347 348 348 347 348 347 346 345 344 344 344 343 343 343 343 343 343 343 342 342 342 342 342 341 341 338 333 335 338 337 335 335 336 336 338 338 338 337 334 336 339 341 340 338 338 338 337 335 334 332 330 330 332 332 332 332 330 327 327 327 328 331 332 333 335 336 335
313 315 313 314 314 314 313 313 314 314 314 315 315 315 316 316 315 316 323 329 338 343 344 345 346 345 344 346 347 347 347 348 347 347 347 346 345 345 344 344 344 343 343 342 343 343 343 343 343 342 342 342 343 342 341 340 338 339 339 339 339 339 339 338 339 339 339 338 337 336 338 340 339 337 337 337 337 335 333 331 330 331 331 330 330 331 330 327 326 327 327 330 332 334 336 337 337
314 315 313 315 314 313 314 314 314 314 315 315 315 315 315 316 315 317 318 321 332 338 339 342 344 345 344 345 346 347 348 348 347 347 347 345 344 344 344 344 343 342 342 342 343 343 343 343 343 342 342 342 343 343 342 341 341 340 339 340 341 339 338 338 339 339 339 339 338 336 337 340 338 336 336 336 336 335 333 333 331 332 331 329 329 331 330 327 328 328 328 330 332 334 336 337 337
314 315 313 315 314 313 315 315 314 314 315 315 315 315 315 315 315 316 315 316 324 330 333 336 340 343 343 344 345 347 347 346 346 347 346 345 344 343 343 343 342 342 342 342 343 343 343 342 343 342 341 342 343 343 343 342 342 342 341 341 341 339 337 337 338 338 339 339 339 337 337 339 338 336 337 336 337 335 333 333 333 333 332 330 330 330 330 329 330 330 330 331 333 334 335 337 338
314 314 314 315 314 314 315 315 314 314 315 315 315 315 314 315 315 316 315 315 320 325 329 332 339 344 344 344 345 346 345 344 346 347 345 345 344 343 343 343 343 342 342 343 343 343 343 343 344 342 342 342 342 342 343 342 341 341 341 341 340 339 338 338 338 338 340 340 338 337 337 338 338 337 337 337 336 335 333 333 333 333 331 331 331 331 330 330 330 330 331 332 332 333 335 337 337
313 313 315 315 314 314 314 314 315 315 315 315 315 314 314 314 315 316 315 317 321 325 328 332 341 345 344 343 344 345 345 345 346 346 345 345 345 344 343 344 343 343 343 342 343 342 343 344 343 343 342 342 343 342 342 341 341 341 341 340 340 340 340 339 339 339 340 339 337 337 337 337 337 337 337 336 335 334 334 333 332 333 332 332 333 332 331 331 331 331 331 330 331 332 335 337 337
312 312 315 314 314 314 314 315 315 315 315 315 314 314 314 315 315 314 314 321 328 330 331 336 342 344 342 342 344 346 345 345 347 346 345 346 346 344 344 344 344 343 343 343 342 343 344 344 343 343 343 342 342 342 341 341 341 342 341 340 340 340 341 341 340 340 340 339 338 339 338 337 337 337 336 335 335 334 333 332 331 332 333 333 333 332 332 331 331 332 331 330 330 332 334 335 335
313 313 314 314 314 314 314 315 315 315 314 314 314 313 315 315 314 314 318 326 332 335 337 340 342 342 342 342 343 345 345 346 347 347 346 346 345 344 344 344 343 343 343 343 343 343 344 344 343 343 343 342 341 342 342 341 342 342 342 341 340 339 339 340 340 340 339 339 339 338 338 338 337 337 336 335 335 334 332 332 332 332 333 333 333 333 333 332 332 332 332 331 331 332 334 335 335
315 314 314 314 314 315 314 314 314 314 314 314 313 313 315 314 313 316 327 333 335 339 340 342 343 342 343 342 343 345 345 346 347 348 347 346 345 344 344 343 343 343 342 343 343 344 343 343 344 344 343 341 341 342 341 342 342 340 340 340 339 338 338 337 337 337 337 338 338 337 337 339 338 337 336 335 334 333 332 332 332 333 333 333 334 333 333 333 332 332 332 331 331 332 334 334 334
314 314 313 313 313 314 313 313 314 313 314 314 314 314 314 315 313 315 329 335 336 339 340 342 342 342 342 342 343 344 345 346 346 347 347 346 345 344 343 343 343 342 342 342 342 343 343 342 344 343 341 340 341 342 342 342 340 337 338 339 338 338 336 334 334 335 336 336 337 337 337 336 335 333 334 335 333 331 332 333 332 333 333 333 334 333 333 334 333 333 334 333 333 333 334 334 333
313 313 312 312 313 313 313 313 313 313 314 314 313 313 312 314 314 316 328 333 335 338 339 342 343 342 342 342 343 344 344 345 346 346 346 345 344 343 343 342 342 342 342 342 342 343 343 342 343 341 340 339 339 340 340 339 338 337 337 338 337 336 334 333 333 334 335 337 336 335 335 333 331 330 331 333 333 332 332 332 333 334 334 333 334 333 334 334 334 334 335 335 335 334 334 334 333
313 313 312 313 312 312 313 313 313 313 312 313 313 309 311 315 314 318 327 332 335 337 338 342 342 342 342 342 342 343 343 344 345 345 345 345 343 342 342 341 341 342 342 341 341 342 342 342 342 341 339 338 338 338 338 338 337 337 336 337 336 335 333 331 332 332 333 337 336 334 334 332 330 331 331 331 331 332 331 332 333 334 333 333 334 334 334 334 334 334 335 335 335 334 334 333 333
313 313 312 313 311 311 313 313 312 313 311 313 313 308 311 315 314 319 327 331 334 334 338 341 341 342 342 342 342 341 342 344 345 345 345 345 343 342 341 341 341 341 342 341 341 341 342 342 341 340 339 338 338 338 338 337 337 336 336 336 334 334 332 329 330 331 331 335 336 335 335 333 331 332 332 331 330 330 332 334 334 334 333 333 334 334 334 335 335 335 334 334 335 334 333 333 333
313 311 311 312 310 311 314 313 312 313 312 313 312 309 311 315 315 320 329 333 334 333 336 339 341 342 341 342 343 342 342 344 345 345 345 344 343 343 342 341 341 341 342 341 340 341 341 341 340 339 339 338 338 337 337 337 336 336 336 335 334 333 332 329 328 331 332 334 335 335 335 333 333 333 333 332 330 331 334 334 334 334 333 333 333 334 335 335 335 335 335 335 335 334 333 333 333
314 312 310 312 311 311 313 313 313 313 313 313 312 310 312 315 315 320 329 332 334 334 335 338 341 342 341 340 342 342 342 343 344 344 345 344 343 343 343 342 341 342 342 341 340 340 340 340 340 339 338 338 337 336 336 337 336 336 335 334 334 332 331 329 328 331 334 334 335 336 334 333 333 333 333 331 331 333 335 334 334 334 334 334 334 334 335 335 335 335 336 336 335 334 334 333 334
313 312 311 313 312 311 311 312 313 312 313 313 313 312 313 314 314 317 325 329 331 332 334 337 339 342 341 340 341 341 342 343 343 344 344 343 343 343 343 342 342 342 342 341 341 339 339 339 339 337 337 337 336 335 335 335 336 335 334 333 332 331 330 330 330 332 334 334 336 336 334 334 334 334 333 332 332 334 334 333 333 334 334 335 335 335 335 335 335 335 336 336 335 334 334 334 334
313 313 312 312 312 311 311 311 313 313 313 313 313 313 313 314 314 315 320 325 328 329 332 336 338 340 341 339 339 340 341 342 343 344 344 343 343 343 343 342 342 342 341 341 341 340 338 338 338 336 335 336 335 334 333 334 335 334 333 332 331 330 330 331 333 333 333 335 336 335 334 334 334 334 333 333 334 334 333 333 334 334 335 336 335 335 335 335 336 335 335 335 335 334 333 333 332
313 314 312 311 311 311 312 313 313 313 313 313 313 313 313 314 314 315 317 322 327 327 330 335 337 338 339 340 340 340 341 341 343 345 344 343 343 342 341 341 341 341 341 341 340 340 339 338 338 335 334 335 334 333 333 333 333 332 332 332 331 331 332 333 334 334 334 335 335 334 334 334 333 333 332 332 334 334 334 334 334 334 335 336 335 335 334 335 336 335 335 334 334 334 333 332 331
313 313 312 311 310 311 313 313 313 313 312 312 313 313 313 314 314 315 316 318 322 324 328 333 336 336 338 340 340 341 341 340 343 345 343 342 342 341 340 340 340 340 340 340 340 340 339 338 337 336 334 334 332 332 333 333 333 332 332 333 333 332 332 333 335 335 335 335 335 335 336 334 332 332 332 333 335 335 335 335 334 335 335 335 335 335 334 335 335 335 334 334 333 334 334 332 332
314 312 312 312 311 312 314 314 313 313 312 312 313 313 313 314 313 315 316 316 317 319 324 328 332 334 336 338 340 341 340 339 341 344 342 341 341 340 339 339 339 340 340 340 340 339 338 338 337 336 334 332 330 331 332 333 333 332 332 333 332 333 333 334 335 335 335 336 336 336 336 335 334 334 334 335 336 336 335 336 336 336 335 335 336 335 334 334 334 334 334 333 333 334 334 333 333
315 313 312 311 312 312 313 314 313 312 312 312 313 313 313 314 314 314 316 316 316 316 320 323 326 330 333 336 338 340 339 339 341 341 341 340 340 339 339 339 339 339 340 340 339 338 338 338 336 336 335 332 330 330 331 332 332 333 334 333 332 333 334 334 334 335 335 336 336 336 336 336 336 336 336 336 336 335 335 335 335 336 335 335 335 335 335 334 334 334 333 333 333 333 334 333 332
315 314 312 311 312 312 311 312 313 313 313 313 313 312 313 314 314 314 315 316 316 315 316 318 321 325 328 332 336 339 339 340 342 341 340 341 339 339 338 338 339 339 339 339 339 338 338 338 337 336 335 332 330 330 330 331 332 333 334 334 333 334 335 335 335 335 335 335 336 336 336 336 336 336 336 335 335 335 335 334 335 335 335 335 335 335 335 334 334 334 333 333 333 333 333 332 332
314 315 313 311 312 312 311 312 313 313 313 314 313 310 311 313 314 314 315 316 316 315 315 316 319 322 326 329 333 337 339 340 341 341 341 341 339 339 338 338 338 338 338 339 338 338 337 338 337 336 335 333 332 330 330 331 333 333 334 334 334 335 335 335 336 336 336 335 336 336 335 335 335 335 335 334 334 335 335 334 334 334 334 334 334 335 335 334 334 334 334 334 333 333 333 332 332
313 315 314 312 312 312 312 312 312 311 311 314 314 309 308 313 315 315 315 316 315 314 315 316 317 320 325 327 331 337 339 340 341 340 340 340 340 338 338 338 338 338 338 338 338 338 337 337 337 336 335 334 333 332 331 332 333 334 334 334 333 334 335 335 335 336 336 335 335 335 335 335 335 335 335 335 335 334 334 334 334 333 333 333 334 334 334 334 334 333 334 333 333 333 333 333 332
311 314 314 313 312 312 312 312 312 310 309 314 316 310 308 311 314 316 317 317 316 315 316 317 316 318 323 326 331 337 340 341 340 339 339 339 339 339 338 338 338 338 338 338 338 338 337 337 336 336 335 334 334 333 332 333 334 333 333 333 333 334 335 335 335 336 336 335 335 335 335 335 335 335 335 334 334 334 334 334 334 333 333 333 334 334 334 334 333 333 333 333 333 333 332 331 331
312 314 313 312 311 312 313 312 311 310 312 314 314 312 309 309 312 317 318 317 316 317 318 319 318 317 319 324 329 335 340 341 340 338 338 339 339 339 338 338 338 338 338 338 337 337 337 336 336 335 335 334 334 333 332 333 334 334 334 335 335 335 335 335 335 336 335 335 335 335 334 334 334 334 333 333 334 334 334 334 333 334 333 333 334 334 334 334 333 332 333 334 333 333 332 330 330
313 313 312 312 312 312 312 312 311 312 313 311 311 312 311 309 311 318 320 316 316 318 318 318 319 319 320 324 328 333 338 338 337 337 337 339 339 339 338 337 337 337 338 338 337 337 337 336 335 335 334 334 334 333 333 334 334 335 335 336 336 335 335 335 334 334 334 334 334 334 333 333 333 333 332 332 333 333 333 333 333 334 333 333 333 333 333 334 334 334 334 334 333 334 333 331 330
314 313 312 311 312 312 312 312 311 313 314 311 310 313 311 309 310 315 318 316 315 316 318 323 325 326 326 326 329 333 336 336 336 336 337 338 339 338 337 337 337 337 337 337 336 336 336 335 335 334 334 334 334 333 333 334 335 335 336 337 336 335 335 334 334 334 334 333 333 333 333 332 332 332 332 332 332 331 332 333 334 334 334 333 333 333 333 334 334 334 334 334 333 334 333 332 332
313 312 311 311 312 313 313 313 311 313 314 311 311 313 313 310 309 311 317 320 320 320 323 328 332 331 331 331 331 333 334 335 335 335 337 338 338 338 337 336 336 336 336 336 336 335 335 335 334 334 333 333 333 333 334 334 335 335 336 337 337 336 335 334 334 334 333 333 332 332 332 333 333 332 332 331 331 331 331 332 333 334 334 333 333 333 334 334 334 334 334 334 334 334 333 332 333
312 311 311 311 312 313 313 313 313 313 312 312 312 313 313 311 310 311 318 322 323 324 327 330 332 332 333 334 332 331 332 335 335 335 336 337 337 337 335 332 332 334 335 335 335 335 334 334 333 333 333 333 333 333 334 334 335 336 336 337 336 335 335 334 334 334 333 332 332 332 332 333 333 332 331 330 330 330 330 330 331 333 334 333 333 333 333 333 333 334 333 333 333 333 333 332 333
312 311 311 311 311 313 314 313 313 312 311 313 313 313 312 311 311 314 318 322 325 329 330 331 332 332 333 334 332 331 333 335 335 335 336 336 336 334 330 327 328 332 334 335 335 334 334 333 333 332 332 332 333 333 334 334 335 336 336 336 335 334 334 334 334 334 333 332 332 332 332 332 331 331 330 330 329 329 329 329 330 331 332 333 333 332 332 332 332 333 333 333 333 333 332 332 332
311 311 311 312 311 313 315 313 312 311 311 314 314 314 312 309 314 322 325 326 330 331 332 332 333 333 333 333 333 333 334 334 335 336 336 335 333 331 329 328 329 332 334 335 334 333 333 333 332 332 332 333 333 333 334 334 335 335 335 335 333 333 333 333 333 333 332 332 332 331 330 330 329 329 329 328 328 328 328 328 329 329 331 332 333 332 332 332 332 332 332 332 332 332 332 332 332
312 311 311 312 311 312 313 312 311 311 312 314 314 314 312 310 318 326 327 329 331 331 331 332 333 333 333 333 332 333 334 334 334 336 336 334 331 331 331 330 330 332 334 335 334 332 333 333 332 333 333 333 333 333 334 334 334 335 335 333 333 333 333 332 332 332 331 330 330 329 329 328 328 328 328 328 328 328 327 327 328 329 329 330 332 333 332 332 332 332 331 331 332 332 332 332 332
313 312 311 311 311 312 312 313 314 312 312 313 313 313 313 313 320 324 325 329 331 331 331 332 333 333 332 333 334 333 333 333 334 336 335 333 331 332 332 331 332 334 335 335 334 333 333 333 333 333 333 333 333 333 334 334 334 334 334 333 333 332 332 331 331 330 330 329 329 329 328 328 328 328 327 327 327 327 327 327 327 329 329 329 330 331 332 332 331 331 331 331 331 331 332 333 332
313 312 311 312 313 313 312 314 316 314 312 313 312 312 312 313 318 322 325 328 330 331 331 332 335 336 335 335 336 335 334 334 334 335 334 332 332 333 332 332 334 335 335 334 333 333 333 333 333 333 333 333 333 333 333 333 334 334 333 333 332 331 330 330 330 330 329 328 328 328 328 328 328 327 327 327 326 326 326 326 326 328 329 329 329 329 330 330 331 332 331 330 330 331 332 332 330
312 311 312 313 314 313 312 313 314 313 313 313 312 312 312 311 314 321 326 329 330 331 331 332 334 336 336 337 336 336 335 334 334 334 334 333 333 334 333 333 334 335 335 334 333 333 333 332 332 333 333 333 332 333 333 333 334 333 333 333 332 331 330 329 329 329 328 328 328 328 327 327 326 326 326 326 326 325 325 325 325 327 328 328 329 328 328 328 330 331 330 329 330 331 332 332 330
312 312 312 312 313 312 313 313 313 313 314 312 312 313 311 310 313 320 327 331 332 330 330 332 333 334 335 335 335 336 336 336 336 335 335 334 334 334 333 332 333 333 334 334 333 333 333 332 332 332 332 332 332 333 333 334 333 333 332 332 332 331 329 329 328 328 328 327 327 327 327 327 326 325 325 325 325 325 325 325 324 325 326 327 328 328 328 328 328 330 331 331 331 331 332 332 330
312 312 312 312 313 313 313 314 313 313 313 313 313 313 312 316 321 327 331 331 331 330 330 331 331 332 332 333 333 334 335 336 336 335 335 334 334 334 331 330 330 330 331 333 333 332 333 333 332 332 332 333 333 333 334 333 332 332 332 332 332 331 329 329 328 328 328 327 327 327 326 326 325 325 325 325 324 324 324 324 324 325 326 326 327 327 328 328 327 329 330 330 330 331 330 329 329
311 311 312 312 313 313 314 314 312 312 312 313 314 313 315 323 327 328 329 329 328 330 331 330 329 330 330 330 330 331 332 333 333 334 335 334 333 332 331 330 331 329 328 330 332 332 332 332 332 332 332 332 333 333 333 333 332 332 332 332 331 331 330 329 328 328 328 327 327 326 326 326 325 325 324 324 324 324 323 323 324 324 326 326 327 327 327 327 327 328 328 327 327 327 326 325 326
314 313 312 312 313 313 314 313 312 312 311 313 315 313 317 326 326 325 327 327 328 330 330 329 328 328 327 327 327 327 329 330 331 332 333 333 332 331 331 330 329 328 327 328 330 331 331 331 331 332 332 333 333 333 332 332 332 331 332 332 332 331 330 329 328 328 327 327 327 326 326 326 325 325 324 324 323 323 322 323 323 324 325 325 325 326 326 326 325 325 325 325 325 324 323 324 325
Wind_Speed
6 4 5 6 4 4 6 5 4 3 4 6 5 3 3 2 2 2 2 1 1 2 2 5 7 7 6 6 5 5 6 7 7 2 0 4 6 14 18 22 26 23 22 22 22 23 24 26 26 26 26 26 26 27 27 27 27 27 27 27 28 28 28 26 26 25 23 21 20 19 19 21 20 20 20 18 18 18 19 18 18 19 20 20 19 19 20 19 19 18 17 16 15 15 15 16 15
4 5 6 6 5 6 3 3 5 3 5 6 3 1 3 3 2 3 1 2 2 4 6 8 9 6 5 5 6 5 2 7 8 5 4 8 11 15 21 23 24 24 23 22 23 22 22 25 27 26 26 27 27 27 28 27 27 27 27 26 26 27 26 25 25 24 22 21 20 18 18 19 20 20 19 18 18 19 19 18 19 19 19 19 19 20 20 19 19 18 17 16 15 14 14 14 14
5 5 6 7 6 5 2 3 5 3 5 5 1 4 3 1 1 2 3 4 5 7 8 8 7 3 5 6 3 3 1 5 6 6 7 11 12 15 22 23 22 24 23 22 22 21 22 25 27 27 27 27 27 28 28 28 28 27 27 26 26 25 24 23 23 22 21 21 21 19 18 19 19 20 20 19 18 19 19 19 19 19 19 19 20 20 20 19 18 17 16 15 14 14 13 13 13
6 6 7 8 6 4 4 4 5 4 4 3 1 5 3 2 4 5 5 6 7 8 8 7 3 1 3 2 1 1 3 5 4 7 7 11 14 20 23 23 23 22 21 21 21 20 22 26 27 27 27 27 27 27 28 28 27 27 26 26 25 24 24 22 21 21 21 21 21 19 19 20 20 19 21 21 19 18 19 19 19 18 18 19 20 18 17 17 16 15 15 14 13 12 12 12 12
5 6 7 7 4 2 4 4 3 5 4 3 1 5 3 4 6 8 8 8 8 8 6 5 1 3 1 5 4 2 4 4 6 7 8 12 18 23 23 23 23 21 21 21 20 20 23 28 27 27 26 26 27 27 28 27 26 26 26 25 25 24 23 21 20 20 21 21 20 19 20 21 20 20 21 21 19 18 18 19 18 17 16 17 17 15 16 16 14 14 13 13 12 11 11 11 11
6 7 7 7 3 1 4 4 4 6 2 3 3 3 4 6 8 9 9 9 6 5 4 4 1 5 5 6 5 4 3 2 8 8 9 16 21 23 23 22 22 21 21 21 20 19 24 28 27 27 26 26 27 27 27 27 26 25 25 25 24 23 22 21 20 20 20 19 19 19 19 19 20 21 19 19 19 19 18 18 18 17 16 16 16 15 15 14 14 13 12 12 12 11 10 11 11
7 7 6 6 2 2 6 5 4 4 2 3 4 5 7 8 9 10 10 7 3 2 3 2 3 5 5 5 5 7 2 1 6 10 13 19 22 23 22 21 21 22 21 20 19 20 24 27 26 26 26 26 27 26 27 27 26 25 24 24 22 22 22 22 21 19 19 18 19 20 19 18 19 20 20 19 19 20 20 18 17 17 16 15 15 15 14 13 12 12 12 11 11 12 11 11 10
8 5 3 5 4 4 6 5 4 3 2 3 3 5 7 9 9 9 9 6 3 2 4 3 5 4 4 5 2 5 4 4 9 14 17 21 23 22 21 20 21 21 20 20 20 21 24 26 26 25 26 26 26 25 25 25 25 24 23 22 21 22 22 21 20 19 18 18 18 19 18 17 17 18 21 20 19 21 21 19 18 17 16 15 15 14 13 12 11 11 11 10 11 12 11 11 10
9 5 2 5 4 4 5 5 4 2 0 1 2 4 5 8 9 9 9 7 5 4 6 4 7 5 6 6 5 5 6 10 15 18 19 22 23 22 21 21 22 21 21 20 21 22 22 25 26 25 26 26 25 24 24 24 24 24 23 22 21 22 21 20 19 19 18 17 17 17 17 16 17 18 20 20 19 20 20 19 19 18 16 15 14 13 12 12 11 10 10 10 10 10 10 11 11
7 5 3 4 4 4 6 4 2 1 2 1 3 4 6 8 9 8 9 8 4 4 4 3 6 6 9 8 7 5 6 14 18 19 19 20 21 21 21 20 22 22 21 21 22 23 21 23 25 25 26 25 24 23 24 23 23 24 24 23 22 22 21 20 20 19 19 18 18 18 18 18 18 18 19 20 19 19 19 18 18 19 16 13 12 13 11 10 10 10 9 9 9 9 10 12 12
5 4 4 5 5 5 4 3 2 2 2 1 3 5 7 9 8 8 8 6 3 3 4 5 7 8 10 8 5 2 7 15 17 19 19 19 20 20 20 20 21 21 21 22 22 22 21 21 23 24 24 23 23 23 24 24 24 24 24 23 21 21 21 21 19 19 19 19 19 19 19 19 18 19 19 19 18 17 18 17 16 17 16 12 11 12 11 10 9 9 9 9 8 10 12 12 12
5 4 4 5 5 4 3 2 1 1 1 3 5 6 8 8 8 9 8 5 1 3 7 6 6 9 9 7 4 3 9 16 17 19 19 18 19 19 20 20 21 21 21 22 22 21 22 21 20 22 23 22 23 23 23 24 24 23 22 22 21 21 21 20 19 18 18 19 19 19 19 18 17 18 18 17 16 16 17 16 16 15 14 12 12 12 11 10 10 9 9 8 8 10 12 13 12
5 4 5 5 4 4 3 3 1 1 2 5 6 7 8 7 10 10 8 4 1 4 7 4 6 8 6 7 5 4 9 15 17 18 19 17 18 19 20 20 21 21 21 21 22 22 22 21 20 20 24 23 22 22 22 22 21 21 21 21 21 21 20 19 18 17 17 18 18 18 18 16 17 18 17 15 15 15 14 14 14 15 14 12 12 12 11 11 10 10 9 8 8 10 13 13 11
4 3 5 4 3 4 4 4 1 3 3 7 5 8 8 6 9 9 7 2 3 3 4 4 5 6 7 7 5 6 8 15 18 18 18 17 18 19 19 21 21 21 20 20 22 23 22 21 20 20 22 23 22 21 20 20 20 20 20 20 21 21 20 19 18 17 18 18 18 17 16 16 17 17 16 15 13 12 11 11 12 13 14 12 11 11 11 10 10 11 10 8 8 10 13 12 11
4 2 4 5 5 5 4 3 2 3 3 6 4 9 8 5 8 9 8 3 4 4 3 4 2 2 7 9 7 9 12 17 19 18 19 18 18 19 19 20 21 21 21 20 21 22 22 20 20 20 21 21 21 20 19 19 19 20 19 19 19 20 20 18 17 17 17 18 17 17 17 17 17 18 17 15 13 12 11 11 11 12 13 13 12 11 11 10 10 11 10 9 8 10 12 13 11
4 3 4 6 6 5 4 3 2 3 3 6 6 9 8 7 8 8 8 4 3 4 3 4 0 2 4 7 9 16 18 20 20 19 19 19 19 19 19 20 20 21 20 20 20 20 21 20 20 20 20 21 20 19 19 19 19 19 19 19 19 20 19 18 17 16 16 17 17 17 17 17 17 18 17 15 14 13 13 13 13 14 14 13 12 12 11 11 11 11 9 9 9 9 11 12 12
3 4 6 6 6 5 2 3 2 1 3 6 8 9 9 8 8 6 4 2 3 4 2 3 1 3 0 5 14 22 22 21 21 20 20 20 20 19 19 19 19 20 19 20 20 20 19 20 20 19 19 20 19 19 19 20 19 18 18 18 19 20 20 19 18 16 16 16 16 17 16 16 15 16 16 15 16 15 14 13 13 13 13 12 12 12 12 12 12 10 9 10 9 9 12 13 12
5 5 7 6 6 3 2 2 3 5 5 7 9 8 9 9 8 7 2 1 3 4 4 4 4 5 4 11 18 23 22 22 22 21 20 20 19 18 18 19 19 19 19 20 20 20 19 19 19 18 19 20 19 19 18 18 19 18 16 17 19 20 20 19 17 16 16 17 18 17 16 14 13 15 16 15 16 16 14 12 11 11 12 12 12 12 12 13 13 11 10 10 10 9 12 13 11
7 5 6 6 2 3 5 3 4 5 6 8 9 8 8 8 8 8 3 2 2 5 6 5 5 6 8 14 19 21 22 21 22 21 20 19 18 18 18 18 19 19 19 19 19 20 19 18 18 17 18 19 18 18 17 18 19 18 17 17 18 18 18 18 16 15 15 17 18 17 15 14 14 16 17 16 15 15 14 12 12 11 11 12 12 11 11 13 13 11 10 10 11 10 11 12 11
7 5 7 4 1 3 3 2 3 5 7 8 9 9 8 6 7 7 6 2 3 5 5 6 7 9 10 14 17 19 20 20 20 20 19 19 18 18 18 18 19 20 20 20 19 20 19 17 17 16 17 19 17 16 16 17 17 17 17 17 17 16 17 18 16 15 16 17 17 18 17 14 14 17 17 17 16 15 14 12 12 11 11 11 11 10 9 11 11 11 10 10 12 10 9 10 10
4 5 7 1 2 1 2 2 4 5 7 8 9 10 8 7 7 6 7 5 5 4 4 6 7 12 13 14 16 18 19 18 19 19 19 18 18 18 18 18 18 18 19 18 18 19 18 18 17 16 17 17 15 15 15 16 16 15 16 16 15 15 17 17 16 17 17 18 18 19 19 15 14 17 17 17 15 13 13 12 11 10 9 9 9 9 9 11 10 10 10 10 10 8 7 9 9
4 6 7 2 1 3 1 1 5 6 7 8 9 9 8 9 8 5 7 7 1 2 2 4 7 13 15 15 16 17 17 17 18 18 19 19 19 19 18 18 17 17 17 16 16 17 18 17 17 16 16 16 14 14 13 15 16 14 14 15 15 14 15 15 15 18 17 16 17 18 19 17 15 16 15 14 13 12 13 12 10 9 9 9 9 9 9 10 10 10 10 9 8 8 7 8 8
6 6 6 5 6 6 4 5 6 6 8 8 9 9 9 11 9 4 6 7 3 2 2 3 7 13 14 15 16 17 17 17 17 17 19 20 21 20 19 19 17 17 17 15 15 16 17 16 15 15 15 15 15 13 13 15 15 13 13 15 15 13 13 13 13 16 15 14 18 19 19 17 14 14 13 12 12 11 11 10 10 9 8 9 9 9 9 10 10 10 10 10 9 8 7 8 8
9 5 4 6 6 7 7 7 7 8 9 9 9 9 10 12 8 6 7 6 3 3 4 4 9 13 13 14 15 16 16 16 17 18 19 19 20 19 18 17 16 16 16 15 15 16 17 16 16 15 15 16 15 14 14 15 14 12 12 14 14 13 12 12 13 13 13 15 18 17 16 14 14 13 11 10 10 10 10 10 10 9 8 8 8 8 9 9 9 9 9 10 10 8 8 9 8
11 9 4 6 6 7 8 8 8 8 9 8 9 10 11 9 8 10 8 2 1 3 4 7 11 12 12 14 15 14 14 15 17 19 18 16 17 17 16 15 15 16 16 15 15 15 16 15 16 16 16 17 15 15 15 15 14 12 12 12 12 13 12 10 10 10 10 13 14 15 13 12 13 12 10 10 9 9 10 10 9 8 8 8 8 7 7 8 8 9 9 10 10 9 9 9 9
8 11 7 7 8 8 8 8 9 8 7 7 10 11 9 6 7 8 3 3 2 3 6 8 11 12 11 12 14 14 14 16 17 18 16 15 16 16 15 14 15 15 15 15 14 14 16 16 17 17 17 17 16 15 16 15 14 13 12 11 12 13 13 11 8 8 9 10 12 14 14 12 11 11 10 10 10 10 10 9 8 7 8 8 7 7 7 7 8 8 9 9 9 9 9 9 9
2 7 7 8 8 7 8 8 8 8 8 9 11 11 8 5 5 4 4 5 4 6 8 9 10 11 11 11 13 13 13 16 17 16 15 14 15 16 15 15 14 15 15 16 14 13 16 17 17 17 18 18 17 16 16 15 15 16 14 12 13 13 12 12 10 9 10 11 11 12 14 12 11 10 10 9 10 11 10 9 9 8 8 7 7 7 7 7 7 7 8 8 9 9 9 9 10
2 5 6 9 9 7 8 8 8 7 7 8 9 10 9 7 8 5 4 4 6 7 8 10 10 10 11 11 12 12 12 16 17 16 15 13 14 16 16 15 15 15 15 16 15 13 15 16 16 17 19 20 20 19 16 15 17 19 15 13 14 13 12 12 12 11 10 11 11 11 13 13 12 12 10 9 9 10 10 10 9 9 8 7 7 7 7 6 6 7 7 7 8 8 9 9 9
5 6 7 8 8 9 9 7 7 7 6 5 5 9 9 10 10 4 4 4 6 7 8 10 10 10 11 11 11 10 12 16 17 16 15 13 13 15 16 16 15 15 15 15 14 12 13 14 15 17 19 20 22 21 17 16 17 18 16 14 14 13 13 13 13 13 10 8 10 11 12 13 12 12 11 9 9 10 11 10 9 8 8 7 6 7 7 6 6 7 7 8 8 9 9 9 9
6 6 7 6 7 7 5 4 5 6 4 3 5 7 7 11 10 4 5 5 7 8 8 9 10 9 10 10 10 10 12 15 15 15 15 13 12 13 15 15 15 14 13 14 14 12 12 13 13 17 19 21 22 19 18 17 16 16 15 15 15 13 13 13 13 13 11 8 10 11 12 13 12 12 12 11 10 10 11 11 9 8 7 6 6 6 6 6 6 7 7 8 8 9 10 10 10
5 5 5 5 6 3 6 3 3 4 3 4 8 7 5 7 8 6 4 6 7 8 8 9 9 9 10 10 10 11 12 13 15 16 14 14 14 14 15 15 14 14 12 12 13 12 13 14 13 15 19 22 22 17 15 16 16 17 15 14 14 13 14 14 13 14 12 10 11 12 12 14 14 13 12 12 12 11 10 10 9 7 7 6 6 6 6 6 6 7 7 8 8 8 10 10 9
5 4 5 5 5 3 6 4 1 1 3 5 8 6 7 6 8 7 4 5 7 8 8 9 9 9 9 10 10 10 11 13 16 17 15 15 16 15 15 15 15 15 13 13 13 12 13 16 15 14 17 20 20 16 14 15 16 16 14 13 14 12 12 13 14 15 13 12 11 12 13 14 14 13 12 12 11 9 9 9 8 6 6 6 6 6 6 6 7 7 7 8 8 9 10 10 9
5 6 5 4 4 2 4 6 3 2 0 4 6 5 7 3 7 5 4 5 7 7 8 10 10 9 9 9 9 10 11 13 15 16 17 18 17 15 15 15 16 15 15 14 14 13 13 15 17 17 16 16 16 15 16 16 15 15 13 13 13 12 10 11 15 16 14 13 12 12 14 14 13 12 12 11 9 8 9 8 7 6 6 7 6 6 6 6 7 8 7 8 8 9 10 11 10
6 6 5 3 4 3 2 5 5 1 3 4 5 6 8 4 3 4 3 4 7 7 8 9 9 9 9 9 10 11 11 12 13 14 17 20 18 16 14 14 15 14 14 14 14 14 14 13 16 19 18 15 14 16 20 18 14 15 14 13 12 11 10 12 16 15 14 13 11 12 13 12 11 11 11 10 9 11 9 8 7 6 6 6 6 6 6 7 7 8 8 7 7 9 10 11 11
5 6 5 4 5 5 4 3 3 1 5 5 6 7 9 10 6 4 4 5 6 7 7 8 9 10 10 10 11 12 13 13 13 14 16 18 17 14 12 13 15 14 14 15 14 14 15 14 13 17 20 20 15 14 19 20 15 14 14 12 12 12 11 13 13 13 14 12 10 11 12 11 10 10 11 10 10 10 9 8 7 8 7 6 6 7 7 7 7 8 8 8 7 8 10 12 13
3 3 4 4 4 5 3 1 1 3 6 7 9 9 9 10 9 6 5 4 6 7 7 7 9 11 11 11 10 11 13 13 12 14 15 16 16 13 11 13 14 13 14 15 15 13 13 13 13 14 17 19 14 14 18 19 15 14 13 13 13 13 12 11 10 10 10 9 8 9 10 9 9 9 10 9 9 9 9 8 8 8 7 6 7 7 7 7 7 8 9 9 9 8 10 14 14
3 3 5 5 6 4 2 2 3 3 6 7 8 10 10 10 11 8 5 5 7 8 9 9 10 11 11 12 12 12 12 11 11 13 14 15 15 13 13 13 13 13 15 16 16 15 13 12 13 15 15 15 13 14 19 18 16 16 14 13 13 14 13 11 9 7 7 7 7 7 7 7 7 7 9 9 9 8 8 8 8 8 7 6 6 7 7 7 7 9 9 9 10 10 11 13 14
5 6 6 6 7 5 3 2 4 2 4 7 7 9 10 10 13 11 6 7 9 9 10 11 11 12 11 12 14 13 10 10 11 10 12 15 14 13 14 13 13 14 15 16 16 16 14 13 13 15 16 17 17 16 18 17 15 15 14 13 13 13 13 11 10 8 7 7 7 6 7 7 7 8 9 9 8 8 8 8 8 8 7 6 6 6 7 8 8 9 10 10 10 11 11 13 15
6 6 7 6 6 4 2 3 2 3 3 6 7 8 8 9 12 13 10 9 10 10 11 11 12 12 12 13 13 13 12 11 11 10 13 16 15 14 13 11 12 14 15 15 16 16 15 14 14 14 15 21 22 19 19 18 14 12 11 11 12 11 11 11 9 9 8 8 7 7 7 8 9 9 9 8 8 7 8 8 8 7 7 7 6 7 8 9 9 9 11 11 11 11 11 14 16
6 6 6 6 4 4 3 4 5 4 5 8 10 9 8 9 11 14 13 13 11 11 13 13 13 13 14 14 13 14 15 14 14 13 13 15 16 15 14 12 12 14 16 16 16 16 16 14 13 13 14 20 23 20 20 20 15 11 9 9 10 9 10 10 9 9 8 8 7 7 7 8 8 7 8 8 7 8 8 8 8 8 7 7 6 8 9 9 9 10 11 11 12 12 11 14 15
7 8 8 7 5 5 6 4 4 6 8 10 10 8 8 10 12 13 12 12 12 13 14 14 14 14 14 14 13 14 15 15 14 14 13 14 16 16 15 14 13 16 18 16 16 16 15 14 13 13 14 17 19 17 18 19 15 13 11 11 10 9 9 10 9 9 8 8 8 7 7 7 7 7 7 7 7 7 8 9 9 9 8 8 7 7 8 9 10 10 11 11 12 12 12 13 13
7 9 10 10 10 10 10 9 6 7 8 7 7 8 6 6 9 9 8 10 13 14 15 16 16 15 15 14 14 14 14 14 14 14 13 13 15 17 17 16 15 16 17 17 16 15 14 14 15 15 14 14 15 16 17 17 16 15 15 15 14 12 11 11 10 10 10 9 8 7 7 7 7 7 7 8 8 7 8 9 9 10 9 9 8 8 8 9 10 10 10 11 11 12 12 11 11
6 4 6 9 11 10 10 8 6 6 5 4 5 8 6 4 5 6 7 9 13 15 15 17 15 14 15 15 14 13 13 14 13 13 14 14 16 17 17 18 17 16 17 17 17 16 16 15 15 16 14 13 14 15 17 17 15 15 16 15 15 13 11 11 10 9 9 9 8 8 8 8 8 8 8 8 8 8 8 9 10 10 10 10 9 8 8 9 10 10 10 11 11 10 12 13 13
4 2 2 7 7 7 6 6 7 6 4 2 7 8 5 6 6 6 7 9 12 13 14 15 14 14 15 15 15 14 13 13 12 12 14 14 16 18 18 18 18 16 17 18 18 17 17 16 15 15 13 12 13 14 17 17 15 14 14 13 12 12 10 10 10 9 9 9 9 9 9 8 8 8 8 8 8 9 9 10 10 10 10 10 9 9 9 9 10 10 10 9 9 8 10 15 16
5 2 1 4 4 5 5 6 6 5 5 5 8 8 6 7 6 5 7 10 12 13 14 13 12 14 14 15 16 14 13 13 12 12 14 14 16 18 18 18 17 17 18 19 18 18 19 18 16 15 13 13 14 14 15 16 14 14 13 12 11 10 9 10 11 10 9 10 10 10 8 8 7 7 7 8 8 9 9 10 10 9 10 9 9 9 9 9 9 9 10 9 9 8 8 12 15
4 1 4 5 4 5 5 6 6 4 5 8 8 8 7 7 6 6 7 10 11 11 10 6 6 9 11 12 14 13 12 11 11 11 12 14 17 18 17 18 18 18 19 19 18 19 19 19 17 15 14 14 13 13 15 15 14 13 12 11 11 10 10 11 11 11 11 10 10 9 9 9 8 8 8 7 7 8 8 9 9 9 9 9 9 9 9 9 8 8 9 9 9 8 8 10 11
2 3 7 6 5 4 3 5 4 4 7 10 9 8 7 7 6 6 5 3 5 6 4 1 2 5 7 9 11 12 11 10 10 10 11 13 15 17 16 16 15 17 18 17 18 19 19 18 17 16 15 14 14 14 15 17 15 13 12 12 12 12 12 12 12 12 12 11 10 10 9 9 9 9 9 8 8 8 8 9 9 9 9 9 9 9 9 9 8 8 8 9 9 8 7 8 9
5 6 7 6 6 4 4 5 4 7 8 5 4 7 9 8 7 6 2 2 1 4 4 4 4 5 4 7 9 11 11 11 10 10 10 11 11 13 13 10 6 10 15 17 18 18 17 17 17 18 16 15 16 16 16 17 15 13 12 13 13 13 13 13 12 12 12 12 12 11 9 9 9 9 9 8 8 8 8 8 9 10 10 9 9 9 9 8 8 9 9 9 9 9 8 8 8
7 7 6 6 6 5 6 6 6 8 6 3 3 5 7 8 8 6 2 2 1 3 4 5 6 6 5 5 8 10 10 10 9 8 9 9 9 11 16 14 7 10 13 17 18 18 18 17 18 20 19 17 18 17 17 17 16 14 14 14 14 14 13 13 12 12 12 12 12 11 10 9 9 9 8 8 8 9 8 8 8 9 9 10 9 9 9 9 8 8 8 8 8 9 9 8 8
8 8 7 7 7 6 7 7 7 8 4 4 4 4 6 8 6 2 2 2 3 3 4 6 6 7 6 5 6 8 9 9 8 8 10 10 11 14 19 22 22 18 17 18 18 19 19 19 19 20 19 19 19 18 18 18 16 15 14 14 14 13 13 12 11 11 11 10 10 10 9 9 8 8 8 8 8 8 7 7 7 8 8 10 10 9 8 9 9 8 8 8 8 9 8 8 8
9 9 8 8 7 6 7 6 6 7 3 4 5 4 6 6 1 3 3 2 2 3 5 6 5 4 5 5 5 8 8 8 8 9 11 13 15 17 19 20 22 22 21 19 18 20 21 21 21 21 20 21 21 19 18 18 17 15 14 14 13 12 11 11 10 10 9 9 9 8 8 7 7 7 7 8 7 7 6 6 7 8 8 9 10 10 10 10 10 8 8 9 9 9 9 9 8
7 7 7 7 7 6 5 3 2 4 4 3 5 4 5 3 3 4 3 2 3 5 6 7 7 3 2 4 4 7 7 8 8 10 12 14 16 18 17 15 17 20 22 21 19 20 21 22 22 22 22 22 22 20 19 18 16 15 14 14 13 11 11 10 9 9 9 8 8 8 7 6 6 6 6 7 7 6 6 7 8 8 9 9 10 11 11 10 10 9 8 10 9 8 9 9 8
4 6 8 6 5 7 6 2 2 1 6 5 4 5 6 5 4 3 3 2 4 6 8 9 9 7 1 2 4 6 6 7 9 9 12 14 14 14 15 16 16 18 22 23 21 21 22 23 23 23 22 22 22 21 19 17 16 15 15 14 13 12 11 10 10 10 9 9 8 7 6 5 5 5 5 6 6 6 6 6 8 9 10 9 10 10 10 10 11 10 10 11 10 9 9 9 9
5 5 5 3 3 6 6 5 4 5 7 5 4 6 7 6 4 2 3 2 4 6 9 10 8 8 5 3 1 2 5 7 8 9 12 13 14 14 14 16 16 18 21 22 21 22 22 21 23 24 23 22 21 20 19 17 16 16 16 15 13 12 12 11 10 11 10 9 8 7 6 6 5 4 5 5 6 6 5 5 7 9 9 9 9 9 8 9 10 10 10 11 10 9 9 8 9
7 3 2 3 4 6 6 6 7 7 7 6 5 7 6 6 4 2 3 3 5 5 7 9 8 7 6 5 5 3 0 4 5 7 9 10 13 14 13 13 15 16 17 18 19 20 20 20 22 23 23 22 21 20 18 17 17 16 16 15 14 12 12 12 12 12 12 10 9 8 7 7 6 5 5 6 6 6 5 5 5 6 7 8 8 8 7 8 9 10 10 10 9 10 9 8 8
8 5 5 5 4 5 5 5 6 7 7 7 6 6 4 2 3 5 6 7 7 6 5 7 7 7 6 6 6 6 4 1 1 5 8 9 11 14 16 17 17 13 11 13 15 17 18 20 21 22 23 22 21 20 18 18 17 16 16 16 15 13 13 13 13 14 13 11 10 9 8 7 6 6 6 6 5 5 4 4 5 6 6 7 7 7 7 8 8 9 10 9 9 9 9 9 8
7 7 7 7 5 4 4 5 6 6 7 6 6 6 2 3 5 5 7 7 6 5 5 6 6 6 7 7 7 7 6 4 3 1 6 9 11 14 16 16 14 13 9 10 13 16 17 18 21 22 22 22 21 20 18 17 16 16 16 15 15 14 14 13 14 14 14 12 12 11 9 8 7 6 7 6 5 4 3 4 5 6 7 8 8 8 7 8 8 8 8 8 8 8 8 8 8
4 6 7 8 7 6 7 7 6 5 7 5 5 6 1 3 3 4 6 6 6 5 6 6 6 7 7 8 8 7 6 5 4 1 4 8 11 13 12 10 12 16 12 9 11 14 16 18 20 20 20 20 19 18 17 16 15 14 15 14 14 15 14 13 14 14 14 13 12 11 10 9 8 7 6 6 5 4 4 5 6 6 7 7 7 8 7 7 8 8 7 7 7 7 8 7 7
Wind_Direction
148 155 160 155 175 203 201 221 233 194 239 260 247 254 114 102 332 271 197 195 220 113 3 317 316 301 274 290 302 321 357 349 350 343 354 75 137 135 132 136 137 136 136 137 141 147 151 153 152 149 148 146 146 146 147 149 149 150 151 151 150 150 150 150 150 151 152 152 150 149 148 148 146 144 143 140 142 143 142 140 138 137 135 134 132 131 130 129 126 123 121 116 112 106 101 99 96
165 167 163 165 189 218 192 217 256 195 222 257 227 206 78 113 230 249 255 351 358 4 321 305 307 289 258 280 282 270 13 29 30 56 86 116 132 132 136 137 137 139 137 137 141 144 146 152 153 151 150 147 147 147 148 148 148 149 151 151 152 152 152 152 152 152 151 151 149 148 146 145 144 143 141 138 142 144 143 143 141 138 136 136 134 133 132 132 129 127 123 119 115 109 102 97 93
182 176 173 181 197 233 204 211 255 236 237 261 134 87 65 174 143 42 1 341 339 321 309 302 295 274 237 225 227 256 109 56 60 87 113 139 139 138 142 137 136 139 138 137 141 143 144 152 154 152 151 149 148 148 150 149 148 149 151 152 153 154 153 153 153 152 151 150 149 147 145 145 144 143 144 142 143 143 143 144 141 139 139 139 137 134 133 131 130 129 125 122 119 115 106 99 96
178 191 191 193 199 226 212 217 253 260 252 269 94 90 73 22 27 7 337 327 320 306 303 297 288 56 271 212 95 279 97 72 90 107 131 149 140 138 140 137 137 138 138 139 140 141 146 154 155 154 152 151 150 149 151 151 150 151 152 153 155 156 154 154 157 156 152 149 148 149 149 147 144 143 145 144 142 140 140 142 141 143 143 141 138 136 135 133 131 131 129 127 126 123 117 108 103
182 197 203 222 230 216 225 236 252 254 259 312 42 99 65 9 356 335 324 316 309 300 295 279 248 116 83 42 9 295 88 96 123 119 128 134 133 136 139 140 141 141 140 140 141 140 148 155 154 155 154 152 153 152 153 153 153 153 154 155 157 157 155 157 159 155 150 147 148 149 149 147 145 145 144 143 144 142 140 142 143 144 143 140 138 138 138 136 134 133 133 133 132 130 125 117 109
184 185 201 242 274 297 249 235 231 239 257 342 312 52 29 3 347 327 316 310 306 293 274 263 229 137 112 65 43 32 41 137 130 131 134 132 136 139 141 144 146 143 141 142 141 139 149 153 151 152 153 154 154 153 154 155 156 155 155 156 157 156 155 154 151 149 147 149 150 149 149 147 147 145 144 144 149 148 142 142 144 144 144 142 140 142 140 137 138 136 136 136 134 132 129 124 117
189 179 189 224 223 234 247 241 251 243 85 24 307 348 5 355 342 321 315 313 306 239 228 220 186 147 110 129 98 52 27 174 129 142 138 136 139 142 146 149 147 142 142 143 140 140 150 152 149 148 149 152 153 153 154 155 156 155 155 155 156 153 151 150 149 150 152 156 155 153 150 148 148 146 147 148 148 147 144 144 146 148 149 145 145 146 141 139 139 137 138 139 137 132 128 125 120
207 202 189 219 201 208 246 250 258 264 65 33 323 349 350 341 335 319 320 309 300 247 224 196 201 198 123 159 114 59 96 108 130 135 134 139 142 147 152 151 147 144 143 141 140 144 151 151 149 146 144 146 149 151 152 155 156 155 155 153 154 153 153 154 153 155 155 157 157 154 152 150 148 148 150 152 148 145 145 148 149 150 150 146 146 145 143 141 138 142 146 142 136 130 127 124 123
207 217 198 231 228 211 245 248 243 263 25 11 352 5 343 334 332 321 317 297 291 262 242 213 209 204 134 132 99 86 99 112 129 132 138 143 145 152 153 152 149 144 142 140 142 146 151 152 149 146 142 142 142 145 148 153 156 157 156 153 154 156 156 157 156 157 157 156 157 157 157 155 153 152 152 155 155 151 149 148 149 151 150 149 149 149 146 143 147 158 152 140 133 129 129 128 127
201 223 224 234 244 230 238 239 213 151 116 26 18 21 353 340 331 323 316 303 294 244 236 195 202 178 133 121 107 104 107 124 133 134 141 144 147 152 152 153 148 143 141 140 143 146 151 153 150 148 146 143 142 142 144 147 152 155 156 156 157 157 157 158 159 160 160 159 160 161 161 159 157 156 153 153 157 160 159 152 148 150 151 150 151 154 149 148 157 162 150 140 133 129 132 131 129
205 208 239 238 234 240 242 240 189 123 107 86 76 43 357 341 328 327 324 314 301 232 199 182 186 153 128 111 101 126 137 140 141 140 143 147 150 150 149 151 149 146 143 142 145 146 150 153 152 151 150 147 146 145 144 145 148 152 156 157 158 159 158 160 162 162 163 163 162 163 162 161 158 158 156 152 151 155 161 161 157 156 158 156 155 157 156 155 154 152 148 139 130 130 132 130 128
227 184 220 239 238 248 271 295 304 47 141 142 95 39 350 340 340 342 336 332 314 205 183 185 165 140 135 121 115 164 156 152 147 145 146 148 150 148 149 149 150 149 145 144 145 146 148 152 154 155 154 150 148 148 147 148 150 154 157 158 159 160 161 162 165 164 164 164 163 162 161 160 159 160 159 153 148 145 150 160 168 171 170 161 157 160 158 159 158 153 148 134 128 133 132 129 125
243 201 220 239 262 269 286 290 297 288 181 120 72 14 343 344 355 348 332 328 168 170 157 161 150 141 135 120 132 167 154 152 150 149 146 146 147 147 149 150 150 148 146 146 147 150 150 152 156 158 157 153 152 152 152 152 154 157 158 158 159 161 163 165 167 168 166 163 162 160 159 160 160 162 161 156 152 148 145 150 161 174 179 165 157 160 157 163 166 154 144 131 128 133 134 130 122
243 236 248 251 262 260 270 265 225 228 160 102 54 359 341 353 358 344 331 313 123 107 117 120 158 148 128 124 154 175 154 151 151 149 146 146 146 146 150 152 152 151 152 151 151 153 154 155 156 159 159 156 156 156 157 157 158 162 162 161 161 162 164 165 165 167 168 166 165 163 161 163 164 164 162 159 156 153 150 150 151 161 174 169 160 159 159 165 164 150 144 135 128 134 136 131 124
246 249 255 259 252 239 235 249 278 239 126 85 39 355 341 15 5 348 353 336 83 69 136 134 173 163 155 169 177 169 160 155 151 147 147 147 146 147 150 153 155 157 158 156 155 157 158 159 157 159 160 158 158 158 160 162 163 166 167 166 166 166 167 168 165 165 168 168 168 166 164 165 168 166 163 161 157 153 152 156 152 149 160 166 164 162 161 162 160 154 146 136 129 134 136 134 129
244 252 239 250 249 233 195 204 243 229 96 61 20 358 341 18 16 4 9 329 87 110 164 135 144 324 179 178 156 155 158 156 149 145 148 147 146 149 151 156 159 161 163 162 161 161 160 160 160 162 163 161 158 157 160 163 166 167 168 170 171 171 171 173 169 166 166 169 169 165 165 165 165 161 158 156 153 152 152 153 152 150 157 161 162 162 162 159 158 158 148 138 132 133 138 138 133
224 242 237 240 237 231 169 190 218 306 46 32 3 359 341 358 18 20 12 311 100 132 136 109 91 360 109 123 135 148 154 155 149 147 150 149 149 152 154 159 162 163 167 169 167 164 162 163 164 165 165 163 158 156 158 162 166 166 166 169 169 171 171 172 170 167 164 169 171 168 166 160 158 154 149 149 150 151 151 150 149 151 158 160 162 164 166 163 160 159 152 143 138 140 143 143 140
211 223 231 236 234 233 64 33 8 351 356 2 346 354 344 341 7 7 314 119 102 160 132 112 100 59 81 112 133 148 152 154 153 154 155 155 156 156 158 162 166 167 171 174 173 170 167 167 168 167 166 165 161 157 156 162 165 163 166 168 168 168 169 170 168 167 165 169 171 168 165 157 155 151 145 145 146 148 146 145 148 150 154 159 165 170 172 167 161 159 155 147 144 144 143 145 147
224 229 235 241 256 35 46 27 18 350 338 342 332 341 337 333 354 345 312 91 130 178 140 131 127 104 113 125 139 150 153 156 157 160 161 162 162 160 162 165 170 172 174 177 177 176 173 171 170 167 166 167 164 157 155 161 164 164 168 169 168 168 171 170 166 168 168 169 170 166 160 156 157 152 145 145 143 142 140 139 144 145 149 161 170 172 173 166 160 161 158 151 147 143 142 149 152
227 237 242 243 60 44 64 43 1 341 333 325 323 329 320 332 346 329 327 334 184 179 151 163 159 144 142 141 149 155 157 159 160 165 167 167 164 164 168 170 175 177 177 179 179 180 178 173 171 169 169 168 164 159 158 162 165 169 171 170 169 171 174 171 168 173 172 171 174 169 160 155 156 153 147 146 142 138 137 137 141 142 148 162 168 166 169 166 161 162 164 157 152 149 148 155 157
217 228 253 347 60 241 119 69 324 323 324 315 315 313 309 337 329 309 324 300 182 165 171 183 176 159 157 158 160 160 160 162 164 172 173 169 168 171 173 175 179 179 179 180 180 182 183 176 172 171 170 169 167 163 163 165 168 172 173 171 171 175 178 175 177 180 177 176 177 171 162 154 150 150 146 143 139 137 139 139 140 140 142 148 152 152 163 169 166 166 169 165 160 163 161 160 160
233 225 249 339 303 264 95 344 313 316 308 303 303 310 323 324 307 307 324 308 146 118 188 202 185 165 164 168 166 164 164 167 171 177 177 173 175 177 177 179 182 180 181 183 181 182 184 180 173 171 168 169 172 170 169 170 171 173 175 175 175 181 184 180 184 186 183 176 170 167 162 154 148 145 144 143 139 140 143 141 139 138 140 143 148 153 162 174 177 175 177 176 175 180 174 162 164
240 220 225 243 258 272 293 299 298 302 296 297 302 317 325 304 302 337 315 305 337 350 262 228 176 165 168 171 172 171 169 173 176 179 181 180 182 181 179 181 181 181 184 184 182 181 182 178 172 172 170 173 177 177 176 175 176 177 177 176 176 183 187 182 186 191 188 174 164 165 162 152 144 141 140 141 137 140 142 139 137 137 142 145 149 156 164 176 182 180 179 179 179 185 180 169 168
236 231 208 233 252 263 275 286 287 293 292 294 299 307 302 293 310 329 307 306 309 277 252 206 160 161 168 174 179 176 172 176 179 183 186 186 186 182 180 183 182 183 186 184 182 179 177 173 172 176 176 176 177 178 182 180 179 180 178 177 177 180 181 184 193 192 183 171 163 163 162 152 144 140 140 138 134 138 138 136 136 136 143 146 147 156 165 172 174 173 172 176 183 185 178 174 170
229 241 236 238 248 256 268 276 279 286 286 289 292 290 286 292 316 305 298 333 235 243 212 174 155 160 170 179 182 174 173 178 182 189 191 187 185 182 179 183 185 188 187 183 181 177 174 171 173 179 177 176 176 179 187 186 182 180 176 175 179 179 177 184 190 185 172 160 157 156 154 148 142 140 141 139 135 136 134 134 136 137 145 148 150 156 160 161 162 165 170 177 182 181 174 173 169
217 236 246 253 257 260 268 272 275 279 277 286 285 281 278 300 321 290 271 117 166 175 172 163 157 166 172 180 183 177 177 184 188 192 193 188 184 180 180 186 190 193 189 182 181 179 175 172 175 178 174 176 180 184 189 186 183 180 174 174 176 174 180 184 171 169 167 153 152 152 145 140 137 138 140 137 135 135 134 138 141 144 150 152 152 154 153 154 158 163 171 178 177 176 172 168 165
183 235 252 261 264 266 268 270 273 276 273 270 272 278 280 295 293 263 122 124 175 164 161 163 166 170 172 179 183 182 187 192 191 188 189 189 185 180 182 190 194 195 192 186 187 185 178 175 175 175 175 177 180 190 192 185 183 182 177 176 172 165 175 183 174 172 172 158 152 147 142 139 135 135 136 135 139 140 142 147 148 150 153 153 150 150 150 152 159 164 170 175 175 173 164 161 161
243 247 260 253 255 256 252 259 263 264 266 258 262 277 276 264 258 247 116 143 180 172 166 166 175 170 171 184 182 182 195 198 191 186 186 185 187 185 185 192 195 195 195 194 193 188 181 176 170 172 181 183 185 192 191 186 188 184 177 172 168 165 170 178 180 178 172 163 157 149 143 138 135 138 137 138 144 147 151 154 152 151 156 157 151 148 150 152 156 157 162 168 168 163 157 159 159
247 249 261 248 244 246 236 244 260 258 261 258 264 271 255 232 234 206 124 173 186 186 179 172 178 171 173 186 182 183 198 199 193 190 186 181 191 191 189 195 197 195 196 198 197 188 181 174 167 174 186 191 195 196 190 189 191 183 175 169 165 164 170 174 178 175 165 161 160 155 145 138 138 141 143 147 151 155 158 157 155 156 161 163 156 151 151 152 151 150 154 159 159 159 156 156 157
245 231 253 258 244 233 199 215 254 246 240 234 247 259 235 210 205 146 130 186 194 195 191 183 182 172 176 185 186 190 196 197 196 194 185 180 191 193 192 195 197 198 198 200 199 188 181 173 167 176 186 194 198 194 188 187 183 180 177 167 163 165 169 172 177 176 169 161 157 157 151 146 146 144 148 154 157 163 163 161 160 162 168 170 163 157 154 153 150 152 157 156 154 158 157 159 164
237 223 229 247 249 182 128 152 247 224 159 179 229 246 241 194 153 113 143 191 202 205 196 191 189 178 180 184 189 195 195 196 198 197 186 179 188 192 194 193 194 198 197 200 198 186 181 179 171 175 189 200 199 188 183 181 173 178 178 170 170 172 174 177 179 181 183 178 160 159 160 156 155 153 154 158 161 168 168 164 164 169 172 173 172 165 159 159 159 161 164 160 156 159 158 162 166
219 235 216 210 234 158 136 161 223 286 110 173 223 240 243 200 112 94 142 185 209 214 200 194 196 190 187 185 191 198 195 196 199 198 189 184 191 191 191 191 193 195 194 198 195 182 180 184 178 173 185 196 199 190 180 180 177 177 178 177 179 176 179 187 187 187 191 188 171 163 164 160 160 158 159 161 161 170 177 169 169 175 172 173 182 174 163 166 167 167 168 166 162 159 159 161 163
206 233 238 192 213 205 161 163 162 303 350 188 222 256 255 187 102 100 147 183 208 216 210 202 201 198 196 190 194 201 197 198 201 198 193 194 198 194 189 190 193 194 192 193 193 187 180 182 185 182 183 188 192 193 188 184 179 178 183 184 182 181 183 189 191 192 193 184 169 165 166 162 162 161 161 158 162 185 187 172 168 173 171 176 186 176 169 172 170 169 167 166 168 162 158 158 159
196 212 243 220 224 247 190 155 150 225 266 216 220 253 268 254 136 135 162 197 211 222 220 209 204 203 205 199 199 205 203 202 202 199 200 203 204 198 191 190 193 193 186 184 188 195 188 178 179 177 183 189 182 190 198 194 180 177 186 186 187 191 184 181 186 188 191 182 163 161 164 159 159 162 157 154 177 198 186 167 165 166 170 175 180 177 175 173 170 172 166 161 167 166 162 160 157
213 203 231 227 218 234 232 181 131 235 264 252 244 243 255 259 242 185 183 212 223 230 228 217 211 206 207 206 206 208 207 208 206 200 199 205 206 198 189 187 192 191 185 184 183 192 194 181 167 161 177 191 177 174 190 193 186 179 182 186 196 202 189 183 185 180 181 180 164 159 157 154 160 163 156 159 188 194 173 163 164 164 167 170 179 181 176 172 167 168 167 160 158 162 163 160 155
255 218 247 250 225 224 226 232 316 310 279 259 254 253 252 256 251 212 178 204 235 238 231 223 218 212 209 209 210 212 212 211 201 186 185 200 202 194 191 189 190 190 189 191 182 181 185 182 173 159 172 191 179 157 171 184 188 184 185 188 194 197 187 183 187 179 173 168 161 160 154 152 160 161 158 171 190 180 164 163 164 166 169 172 183 184 177 174 165 166 168 161 154 152 155 157 154
277 258 254 255 252 244 156 194 256 290 284 266 255 259 259 259 260 240 180 196 235 238 233 229 223 219 214 212 213 214 215 212 196 173 175 198 197 188 192 186 183 188 190 191 184 178 174 175 181 167 164 183 184 168 170 179 185 185 191 192 190 186 179 180 183 175 166 160 157 159 153 154 166 166 165 181 185 169 161 162 163 170 173 178 186 182 177 171 165 167 165 162 161 156 154 158 157
256 260 258 252 254 251 149 207 267 247 262 267 261 264 259 256 260 251 214 215 235 236 236 235 229 225 220 217 216 213 211 208 200 179 180 196 191 183 185 179 181 188 188 187 186 184 177 176 183 174 162 163 173 185 184 183 185 187 192 193 190 179 171 178 179 169 167 161 159 161 158 165 177 178 178 183 177 165 164 163 167 174 178 182 179 174 172 166 166 168 165 166 168 165 161 161 158
247 250 257 256 260 271 220 199 211 198 235 275 280 278 269 264 263 256 237 230 238 238 239 240 234 230 224 220 216 212 209 200 192 181 181 185 180 177 177 173 182 188 187 185 186 184 181 183 183 175 163 155 163 186 195 190 188 189 193 191 187 176 169 177 174 170 172 164 163 169 168 173 178 180 181 178 172 172 172 170 174 179 181 182 176 171 170 168 171 173 173 172 170 169 166 165 166
237 241 250 250 254 272 242 170 170 218 260 281 287 285 275 269 259 252 244 236 240 240 240 242 237 233 229 224 218 210 208 199 188 183 181 177 173 173 173 173 180 189 191 188 185 183 182 187 181 169 167 163 168 183 190 188 189 189 185 181 179 171 167 170 166 167 171 169 170 172 173 177 179 181 181 180 182 183 179 178 181 182 184 186 182 179 175 174 176 177 179 177 173 171 167 172 177
231 235 247 260 263 266 266 256 262 275 263 254 265 275 264 253 246 242 231 222 232 239 238 238 235 233 231 229 224 214 210 201 187 186 186 181 178 173 170 173 178 189 194 189 185 183 179 180 175 168 169 169 171 178 183 183 185 183 174 170 173 169 165 168 168 167 172 177 175 174 178 180 184 184 184 189 190 185 181 183 185 184 188 190 189 188 181 179 181 182 183 181 180 178 172 174 178
242 224 234 257 268 267 269 270 273 278 259 215 222 265 259 231 237 240 216 202 219 228 229 231 230 227 225 226 224 216 212 201 187 188 189 184 182 176 170 172 178 187 193 190 184 181 175 169 167 169 168 168 169 174 182 182 180 178 172 171 174 172 171 174 175 172 176 181 177 176 179 180 186 186 186 190 184 180 179 180 185 188 189 190 192 193 187 184 186 188 187 185 190 188 173 168 177
255 206 218 247 259 263 265 261 243 258 278 154 189 263 269 230 231 221 202 206 219 218 220 226 227 225 222 222 220 211 205 198 187 185 186 183 183 179 173 173 178 185 188 186 184 181 172 161 160 166 166 167 170 174 181 182 179 177 174 175 177 177 175 174 174 174 175 177 172 173 176 179 187 187 186 185 178 179 179 178 183 185 187 190 192 195 191 188 191 191 189 189 197 192 169 169 184
257 97 215 243 247 256 255 246 235 253 296 199 209 246 265 263 248 198 194 221 227 220 220 223 226 231 228 223 220 210 199 195 186 183 187 184 182 183 179 175 178 183 182 181 182 182 172 161 159 163 164 168 171 172 176 181 180 177 178 180 180 179 175 167 165 164 166 167 168 174 177 180 188 190 187 184 178 179 181 179 179 181 185 189 191 196 194 190 193 191 188 189 195 193 175 177 184
259 94 231 261 267 270 256 240 235 245 278 246 215 217 240 256 240 191 204 230 234 228 226 224 225 234 233 228 223 210 199 195 188 190 192 184 182 185 179 172 175 181 180 177 177 178 172 164 160 157 158 162 165 169 175 183 182 177 180 183 179 175 168 162 158 158 163 166 166 171 174 175 182 185 184 184 181 180 181 176 174 178 181 185 189 194 194 192 192 187 183 185 186 190 190 183 183
264 181 236 260 260 261 252 244 242 222 244 254 227 204 233 258 235 207 211 229 239 234 230 228 237 244 239 233 223 207 200 195 190 193 189 185 187 185 177 174 175 179 182 177 174 176 171 165 162 161 163 164 166 171 177 182 181 178 182 182 176 169 163 162 160 160 165 166 165 167 171 173 174 175 176 179 179 178 178 172 173 178 177 181 186 189 193 190 187 184 180 181 183 187 186 180 187
240 220 230 232 223 227 233 236 248 234 231 249 238 209 231 263 252 235 217 224 260 251 240 272 291 265 245 234 220 203 196 187 185 186 178 181 184 180 175 173 171 175 179 177 175 176 171 164 165 169 171 170 169 171 174 176 177 180 182 180 176 169 165 165 163 163 163 162 165 167 172 172 168 169 170 170 172 173 172 170 174 176 175 180 183 186 193 190 186 183 178 177 184 192 185 181 197
214 230 232 225 210 204 223 210 206 241 241 240 227 209 226 249 257 254 200 130 310 298 293 301 303 297 268 236 217 202 195 181 178 184 176 171 173 168 147 122 138 176 180 181 179 175 170 164 166 169 170 169 167 169 175 177 177 180 182 182 179 174 170 169 167 166 166 166 168 169 171 169 164 165 164 164 165 166 169 171 175 174 173 179 184 189 192 193 193 186 181 181 185 197 197 192 204
212 225 225 230 220 198 220 216 202 236 237 149 160 206 230 249 258 264 242 136 344 328 315 310 306 302 289 243 210 193 188 177 171 178 170 160 157 140 118 119 174 212 197 190 182 176 171 163 163 166 166 165 165 169 177 178 177 180 182 182 180 177 177 176 172 169 169 169 168 167 167 165 162 162 161 162 161 162 166 168 173 175 174 176 182 190 190 191 198 194 190 188 187 199 202 202 207
208 218 217 226 231 218 227 229 225 238 221 142 166 219 248 255 255 289 12 37 16 3 333 323 310 292 283 255 206 183 181 175 167 169 166 155 145 138 139 159 182 195 199 194 180 176 172 163 162 165 165 165 166 171 177 179 180 180 180 180 179 179 181 179 174 171 168 165 164 163 162 160 161 160 160 161 160 164 168 166 171 175 175 175 174 181 184 185 194 196 194 193 193 199 203 207 210
204 217 227 234 243 242 246 249 249 252 228 155 168 211 257 259 192 84 75 71 48 28 360 343 327 293 271 251 197 180 182 175 167 168 165 155 151 157 164 172 176 179 189 189 176 174 171 164 166 168 166 166 168 173 178 179 180 179 179 179 178 180 181 178 173 169 163 157 154 154 154 154 154 154 156 156 155 163 172 173 176 176 175 174 170 174 180 183 186 187 193 198 195 197 201 206 207
199 208 228 240 246 247 256 282 306 296 269 201 180 220 271 263 177 157 152 122 75 50 33 12 359 355 240 226 186 181 185 178 175 165 158 158 164 171 171 172 176 178 180 181 177 175 171 167 169 169 169 169 170 175 180 180 179 177 178 178 178 178 176 172 166 158 151 145 143 145 146 145 146 148 150 150 152 162 171 176 183 179 173 171 170 173 178 180 179 178 191 197 193 198 205 203 203
176 203 223 226 247 257 258 233 142 267 267 250 212 242 266 253 214 164 153 131 79 54 48 36 13 11 52 168 171 180 179 178 180 165 159 166 174 177 172 173 183 183 179 179 178 177 175 171 169 170 171 171 173 176 180 180 177 176 177 178 178 174 168 163 155 147 142 139 138 139 142 141 142 148 151 153 156 160 163 171 178 178 174 171 170 174 178 179 178 180 185 186 186 197 206 204 201
194 207 219 194 228 254 257 246 223 230 252 248 226 247 264 259 246 142 163 161 79 61 57 53 27 17 35 59 94 184 177 178 179 168 166 170 177 184 180 178 186 189 184 179 177 177 177 173 171 172 172 171 175 178 179 179 176 176 177 175 173 167 161 157 150 147 146 146 145 143 146 148 146 147 151 157 158 155 156 164 174 177 178 178 176 177 183 183 184 187 185 182 184 192 201 205 201
233 261 265 223 234 231 218 235 246 244 251 253 241 249 262 264 267 126 132 78 51 52 61 59 42 29 26 22 19 6 209 180 181 173 168 172 184 183 168 171 188 195 190 180 175 176 176 175 174 173 174 173 174 177 178 178 176 175 175 172 169 164 162 159 154 156 157 157 156 153 151 149 144 143 151 159 161 156 155 164 175 181 183 186 185 184 189 189 189 189 184 182 183 190 197 199 196
226 257 252 236 250 253 231 230 246 250 254 258 254 249 247 285 355 44 62 53 37 26 46 57 49 43 31 21 21 12 6 41 201 191 174 171 179 168 159 172 183 185 190 185 176 177 179 178 177 176 175 173 172 176 178 177 176 174 172 170 169 167 167 164 161 164 165 164 164 161 157 153 147 147 150 157 164 161 163 171 178 185 186 189 190 189 192 191 187 184 183 182 182 191 199 194 189
208 218 225 222 222 247 259 249 245 255 262 260 261 258 250 47 29 40 50 48 37 26 48 65 58 54 46 34 23 13 11 15 4 212 175 164 163 162 167 177 166 152 179 204 188 182 184 183 182 181 177 174 172 173 174 173 173 173 171 170 171 172 172 171 170 171 169 166 166 164 161 157 154 153 152 158 166 165 171 177 178 182 181 183 186 184 186 186 181 178 179 181 182 189 194 189 186
245 232 230 231 228 231 242 241 232 246 263 266 273 270 263 64 31 44 53 42 30 35 68 80 62 48 46 40 32 25 22 15 13 74 150 154 160 166 167 165 154 152 170 211 201 190 193 192 189 185 178 174 171 168 168 169 168 170 171 170 173 175 177 177 175 175 171 166 167 167 164 162 159 158 158 161 165 163 170 175 175 174 170 172 176 174 172 175 175 172 170 171 176 182 183 180 178